,,PA_Meas_PMT16A,,PR_Meas_QMR101_102,,RH_Meas_QMH101,,SR_Meas_QMS101,,TA_Meas_QMH101,,GenWind,,GenWind,
time,status,PA,status,PR,status,RH,status,SR,status,TA,status,DirAvg,status,SpdAvg,
2011-01-17, 00:00:04,VALID,917.342,VALID,0,VALID,90.2003,VALID,0,VALID,17.9106,VALID,253,VALID,0.772266,
2011-01-17, 00:01:04,VALID,917.313,VALID,0,VALID,90.1012,VALID,0,VALID,17.9106,VALID,253,VALID,1.09687,
2011-01-17, 00:02:04,VALID,917.337,VALID,0,VALID,90.0935,VALID,0,VALID,17.8716,VALID,253,VALID,1.14258,
2011-01-17, 00:03:04,VALID,917.331,VALID,0,VALID,90.2003,VALID,0,VALID,17.8521,VALID,253,VALID,1.06602,
2011-01-17, 00:04:04,VALID,917.372,VALID,0,VALID,90.185,VALID,0,VALID,17.8131,VALID,253,VALID,0.743359,
2011-01-17, 00:05:04,VALID,917.358,VALID,0,VALID,90.4899,VALID,0,VALID,17.7352,VALID,253,VALID,0.7,
2011-01-17, 00:06:04,VALID,917.324,VALID,0,VALID,90.772,VALID,0,VALID,17.6754,VALID,253,VALID,0.724609,
2011-01-17, 00:07:04,VALID,917.346,VALID,0,VALID,91.0312,VALID,0,VALID,17.6364,VALID,253,VALID,0.990234,
2011-01-17, 00:08:04,VALID,917.366,VALID,0,VALID,91.1379,VALID,0,VALID,17.6169,VALID,253,VALID,0.757813,
2011-01-17, 00:09:04,VALID,917.378,VALID,0,VALID,91.1989,VALID,0,VALID,17.6377,VALID,253,VALID,0.936719,
2011-01-17, 00:10:04,VALID,917.343,VALID,0,VALID,91.3361,VALID,0,VALID,17.6169,VALID,253,VALID,0.773438,
2011-01-17, 00:11:04,VALID,917.355,VALID,0,VALID,91.2828,VALID,0,VALID,17.6169,VALID,253,VALID,0.4625,
2011-01-17, 00:12:04,VALID,917.353,VALID,0,VALID,91.4962,VALID,0,VALID,17.6377,VALID,253,VALID,0.737891,
2011-01-17, 00:13:04,VALID,917.351,VALID,0,VALID,91.5801,VALID,0,VALID,17.6169,VALID,253,VALID,0.917969,
2011-01-17, 00:14:04,VALID,917.358,VALID,0,VALID,91.4734,VALID,0,VALID,17.6169,VALID,253,VALID,0.604297,
2011-01-17, 00:15:04,VALID,917.318,VALID,0,VALID,91.5725,VALID,0,VALID,17.6169,VALID,253,VALID,0.841406,
2011-01-17, 00:16:04,VALID,917.338,VALID,0,VALID,91.6335,VALID,0,VALID,17.6377,VALID,253,VALID,0.769141,
2011-01-17, 00:17:04,VALID,917.331,VALID,0,VALID,91.6716,VALID,0,VALID,17.5974,VALID,253,VALID,0.755469,
2011-01-17, 00:18:04,VALID,917.33,VALID,0,VALID,91.9613,VALID,0,VALID,17.5779,VALID,253,VALID,0.833984,
2011-01-17, 00:19:04,VALID,917.32,VALID,0,VALID,92.0832,VALID,0,VALID,17.5194,VALID,253,VALID,0.985937,
2011-01-17, 00:20:04,VALID,917.34,VALID,0,VALID,92.4339,VALID,0,VALID,17.4805,VALID,253,VALID,1.03477,
2011-01-17, 00:21:04,VALID,917.366,VALID,0,VALID,92.6855,VALID,0,VALID,17.4623,VALID,253,VALID,1.11094,
2011-01-17, 00:22:04,VALID,917.36,VALID,0,VALID,92.9294,VALID,0,VALID,17.4233,VALID,253,VALID,1.04141,
2011-01-17, 00:23:04,VALID,917.371,VALID,0,VALID,93.3106,VALID,0,VALID,17.422,VALID,253,VALID,1.07187,
2011-01-17, 00:24:04,VALID,917.359,VALID,0,VALID,93.5774,VALID,0,VALID,17.4428,VALID,253,VALID,1.23945,
2011-01-17, 00:25:04,VALID,917.365,VALID,0,VALID,93.5851,VALID,0,VALID,17.4415,VALID,253,VALID,1.18164,
2011-01-17, 00:26:04,VALID,917.384,VALID,0,VALID,93.6079,VALID,0,VALID,17.4415,VALID,253,VALID,1.11211,
2011-01-17, 00:27:04,VALID,917.381,VALID,0,VALID,93.6079,VALID,0,VALID,17.4415,VALID,253,VALID,0.805859,
2011-01-17, 00:28:04,VALID,917.39,VALID,0,VALID,93.5088,VALID,0,VALID,17.4415,VALID,253,VALID,0.817969,
2011-01-17, 00:29:04,VALID,917.366,VALID,0,VALID,93.2191,VALID,0,VALID,17.4025,VALID,253,VALID,0.578516,
2011-01-17, 00:30:04,VALID,917.359,VALID,0,VALID,93.2877,VALID,0,VALID,17.4038,VALID,253,VALID,0.563672,
2011-01-17, 00:31:04,VALID,917.319,VALID,0,VALID,93.6613,VALID,0,VALID,17.4038,VALID,253,VALID,0.957031,
2011-01-17, 00:32:04,VALID,917.325,VALID,0,VALID,93.6613,VALID,0,VALID,17.4025,VALID,253,VALID,0.849219,
2011-01-17, 00:33:04,VALID,917.305,VALID,0,VALID,93.7299,VALID,0,VALID,17.4038,VALID,253,VALID,0.718359,
2011-01-17, 00:34:04,VALID,917.286,VALID,0,VALID,93.6155,VALID,0,VALID,17.3635,VALID,253,VALID,0.515234,
2011-01-17, 00:35:04,VALID,917.298,VALID,0,VALID,93.5393,VALID,0,VALID,17.3454,VALID,253,VALID,0.580469,
2011-01-17, 00:36:04,VALID,917.28,VALID,0,VALID,93.6155,VALID,0,VALID,17.3259,VALID,253,VALID,0.5875,
2011-01-17, 00:37:04,VALID,917.315,VALID,0,VALID,93.8443,VALID,0,VALID,17.2856,VALID,253,VALID,0.897266,
2011-01-17, 00:38:04,VALID,917.31,VALID,0,VALID,94.1339,VALID,0,VALID,17.3259,VALID,253,VALID,1.025,
2011-01-17, 00:39:04,VALID,917.318,VALID,0,VALID,94.3398,VALID,0,VALID,17.3649,VALID,253,VALID,1.11016,
2011-01-17, 00:40:04,VALID,917.3,VALID,0,VALID,94.1721,VALID,0,VALID,17.383,VALID,253,VALID,0.816406,
2011-01-17, 00:41:04,VALID,917.289,VALID,0,VALID,93.8671,VALID,0,VALID,17.4025,VALID,253,VALID,0.708203,
2011-01-17, 00:42:04,VALID,917.304,VALID,0,VALID,93.768,VALID,0,VALID,17.4038,VALID,253,VALID,0.908984,
2011-01-17, 00:43:04,VALID,917.243,VALID,0,VALID,93.4783,VALID,0,VALID,17.3441,VALID,253,VALID,0.859766,
2011-01-17, 00:44:04,VALID,917.236,VALID,0,VALID,93.6079,VALID,0,VALID,17.3441,VALID,253,VALID,0.820313,
2011-01-17, 00:45:04,VALID,917.229,VALID,0,VALID,93.8061,VALID,0,VALID,17.3454,VALID,253,VALID,0.979688,
2011-01-17, 00:46:04,VALID,917.193,VALID,0,VALID,93.7375,VALID,0,VALID,17.3649,VALID,253,VALID,0.892969,
2011-01-17, 00:47:04,VALID,917.198,VALID,0,VALID,93.7375,VALID,0,VALID,17.3454,VALID,253,VALID,1.06328,
2011-01-17, 00:48:04,VALID,917.169,VALID,0,VALID,93.6842,VALID,0,VALID,17.3441,VALID,253,VALID,1.25937,
2011-01-17, 00:49:04,VALID,917.15,VALID,0,VALID,93.5546,VALID,0,VALID,17.3441,VALID,253,VALID,1.15352,
2011-01-17, 00:50:04,VALID,917.153,VALID,0,VALID,93.7833,VALID,0,VALID,17.3246,VALID,252,VALID,1.26094,
2011-01-17, 00:51:04,VALID,917.166,VALID,0,VALID,93.6613,VALID,0,VALID,17.3259,VALID,252,VALID,1.20273,
2011-01-17, 00:52:04,VALID,917.145,VALID,0,VALID,94.0272,VALID,0,VALID,17.3051,VALID,252,VALID,1.32422,
2011-01-17, 00:53:04,VALID,917.127,VALID,0,VALID,94.0272,VALID,0,VALID,17.3051,VALID,252,VALID,1.24492,
2011-01-17, 00:54:04,VALID,917.135,VALID,0,VALID,93.9434,VALID,0,VALID,17.3051,VALID,252,VALID,0.992969,
2011-01-17, 00:55:04,VALID,917.102,VALID,0,VALID,94.0806,VALID,0,VALID,17.2856,VALID,252,VALID,1.07695,
2011-01-17, 00:56:04,VALID,917.085,VALID,0,VALID,94.3398,VALID,0,VALID,17.3259,VALID,252,VALID,1.03789,
2011-01-17, 00:57:04,VALID,917.115,VALID,0,VALID,94.3321,VALID,0,VALID,17.3454,VALID,252,VALID,1.12891,
2011-01-17, 00:58:04,VALID,917.117,VALID,0,VALID,94.0577,VALID,0,VALID,17.3246,VALID,252,VALID,0.987891,
2011-01-17, 00:59:04,VALID,917.102,VALID,0,VALID,93.8824,VALID,0,VALID,17.3064,VALID,252,VALID,0.843359,
2011-01-17, 01:00:04,VALID,917.088,VALID,0,VALID,93.89,VALID,0,VALID,17.2674,VALID,252,VALID,0.841797,
2011-01-17, 01:01:04,VALID,917.094,VALID,0,VALID,93.8519,VALID,0,VALID,17.2077,VALID,252,VALID,0.749609,
2011-01-17, 01:02:04,VALID,917.068,VALID,0,VALID,93.7604,VALID,0,VALID,17.1895,VALID,252,VALID,0.664453,
2011-01-17, 01:03:04,VALID,917.056,VALID,0,VALID,94.0196,VALID,0,VALID,17.1687,VALID,252,VALID,0.801172,
2011-01-17, 01:04:04,VALID,917.054,VALID,0,VALID,94.1568,VALID,0,VALID,17.1492,VALID,252,VALID,0.622266,
2011-01-17, 01:05:04,VALID,917.032,VALID,0,VALID,94.1339,VALID,0.107441,VALID,17.1297,VALID,252,VALID,0.560156,
2011-01-17, 01:06:04,VALID,917.022,VALID,0,VALID,94.3779,VALID,0,VALID,17.1297,VALID,252,VALID,0.626953,
2011-01-17, 01:07:04,VALID,916.999,VALID,0,VALID,94.599,VALID,0,VALID,17.1492,VALID,252,VALID,0.734375,
2011-01-17, 01:08:04,VALID,917.002,VALID,0,VALID,94.6447,VALID,0,VALID,17.1492,VALID,252,VALID,0.965234,
2011-01-17, 01:09:04,VALID,917,VALID,0,VALID,94.7286,VALID,0,VALID,17.1687,VALID,252,VALID,0.758984,
2011-01-17, 01:10:04,VALID,916.94,VALID,0,VALID,94.7438,VALID,0,VALID,17.17,VALID,252,VALID,0.75625,
2011-01-17, 01:11:04,VALID,916.954,VALID,0,VALID,94.7057,VALID,0.107441,VALID,17.1882,VALID,252,VALID,0.695703,
2011-01-17, 01:12:04,VALID,916.936,VALID,0,VALID,94.7591,VALID,0,VALID,17.1687,VALID,252,VALID,0.754687,
2011-01-17, 01:13:04,VALID,916.914,VALID,0,VALID,94.7438,VALID,0,VALID,17.1687,VALID,252,VALID,1.06836,
2011-01-17, 01:14:04,VALID,916.915,VALID,0,VALID,94.7438,VALID,0.107441,VALID,17.2077,VALID,252,VALID,1.06094,
2011-01-17, 01:15:04,VALID,916.896,VALID,0,VALID,94.4999,VALID,0,VALID,17.1895,VALID,252,VALID,0.774609,
2011-01-17, 01:16:04,VALID,916.92,VALID,0,VALID,94.3245,VALID,0,VALID,17.1687,VALID,252,VALID,0.588281,
2011-01-17, 01:17:04,VALID,916.892,VALID,0,VALID,94.1949,VALID,0,VALID,17.1687,VALID,252,VALID,0.533594,
2011-01-17, 01:18:04,VALID,916.914,VALID,0,VALID,94.2407,VALID,0,VALID,17.1492,VALID,252,VALID,0.601563,
2011-01-17, 01:19:04,VALID,916.911,VALID,0,VALID,94.1721,VALID,0,VALID,17.1505,VALID,252,VALID,0.629687,
2011-01-17, 01:20:04,VALID,916.899,VALID,0,VALID,94.3245,VALID,0,VALID,17.1505,VALID,252,VALID,0.591406,
2011-01-17, 01:21:04,VALID,916.901,VALID,0,VALID,94.2559,VALID,0,VALID,17.1102,VALID,252,VALID,0.710547,
2011-01-17, 01:22:04,VALID,916.882,VALID,0,VALID,94.1797,VALID,0,VALID,17.1102,VALID,252,VALID,0.85625,
2011-01-17, 01:23:04,VALID,916.859,VALID,0,VALID,94.1644,VALID,0,VALID,17.0713,VALID,252,VALID,0.877344,
2011-01-17, 01:24:04,VALID,916.837,VALID,0,VALID,94.3169,VALID,0,VALID,17.0518,VALID,252,VALID,1.03555,
2011-01-17, 01:25:04,VALID,916.814,VALID,0,VALID,94.416,VALID,0,VALID,17.0713,VALID,252,VALID,0.949609,
2011-01-17, 01:26:04,VALID,916.807,VALID,0,VALID,94.1873,VALID,0,VALID,17.0726,VALID,252,VALID,0.899609,
2011-01-17, 01:27:04,VALID,916.791,VALID,0,VALID,94.1187,VALID,0,VALID,17.0323,VALID,252,VALID,0.8375,
2011-01-17, 01:28:04,VALID,916.788,VALID,0,VALID,93.9586,VALID,0,VALID,17.0128,VALID,252,VALID,0.808984,
2011-01-17, 01:29:04,VALID,916.771,VALID,0,VALID,94.2254,VALID,0,VALID,16.9933,VALID,252,VALID,0.720703,
2011-01-17, 01:30:04,VALID,916.752,VALID,0,VALID,94.1721,VALID,0,VALID,17.0141,VALID,252,VALID,0.735937,
2011-01-17, 01:31:04,VALID,916.751,VALID,0,VALID,94.4465,VALID,0,VALID,17.0336,VALID,252,VALID,1.10352,
2011-01-17, 01:32:04,VALID,916.723,VALID,0,VALID,94.3703,VALID,0,VALID,17.0531,VALID,252,VALID,1.11836,
2011-01-17, 01:33:04,VALID,916.718,VALID,0,VALID,94.3626,VALID,0,VALID,17.092,VALID,252,VALID,1.08203,
2011-01-17, 01:34:04,VALID,916.734,VALID,0,VALID,94.0272,VALID,0.107441,VALID,17.0713,VALID,252,VALID,0.860937,
2011-01-17, 01:35:04,VALID,916.716,VALID,0,VALID,94.1339,VALID,0,VALID,17.092,VALID,251,VALID,1.00742,
2011-01-17, 01:36:04,VALID,916.705,VALID,0,VALID,94.073,VALID,0,VALID,17.131,VALID,251,VALID,0.975,
2011-01-17, 01:37:04,VALID,916.712,VALID,0,VALID,93.9205,VALID,0,VALID,17.131,VALID,251,VALID,0.800781,
2011-01-17, 01:38:05,VALID,916.704,VALID,0,VALID,93.8976,VALID,0,VALID,17.1115,VALID,251,VALID,0.933203,
2011-01-17, 01:39:05,VALID,916.707,VALID,0,VALID,93.8519,VALID,0,VALID,17.092,VALID,251,VALID,0.825,
2011-01-17, 01:40:05,VALID,916.658,VALID,0,VALID,93.7299,VALID,0,VALID,17.0726,VALID,251,VALID,0.715234,
2011-01-17, 01:41:05,VALID,916.677,VALID,0,VALID,93.7299,VALID,0,VALID,17.0726,VALID,251,VALID,0.5625,
2011-01-17, 01:42:05,VALID,916.708,VALID,0,VALID,93.6537,VALID,0,VALID,17.0531,VALID,251,VALID,0.730469,
2011-01-17, 01:43:05,VALID,916.678,VALID,0,VALID,93.9738,VALID,0,VALID,17.0336,VALID,251,VALID,0.513672,
2011-01-17, 01:44:05,VALID,916.703,VALID,0,VALID,94.1111,VALID,0,VALID,16.9946,VALID,251,VALID,0.428516,
2011-01-17, 01:45:05,VALID,916.704,VALID,0,VALID,94.1721,VALID,0,VALID,16.9349,VALID,251,VALID,0.377344,
2011-01-17, 01:46:05,VALID,916.717,VALID,0,VALID,94.1263,VALID,0,VALID,16.8972,VALID,251,VALID,0.359375,
2011-01-17, 01:47:05,VALID,916.693,VALID,0,VALID,94.3703,VALID,0,VALID,16.8777,VALID,251,VALID,0.565234,
2011-01-17, 01:48:05,VALID,916.703,VALID,0,VALID,94.9496,VALID,0,VALID,16.8764,VALID,251,VALID,0.900391,
2011-01-17, 01:49:05,VALID,916.68,VALID,0,VALID,95.3384,VALID,0,VALID,16.9167,VALID,251,VALID,0.964453,
2011-01-17, 01:50:05,VALID,916.7,VALID,0,VALID,95.4452,VALID,0,VALID,16.9362,VALID,251,VALID,0.586328,
2011-01-17, 01:51:05,VALID,916.663,VALID,0,VALID,95.1783,VALID,0,VALID,16.8972,VALID,251,VALID,0.404687,
2011-01-17, 01:52:05,VALID,916.666,VALID,0,VALID,95.2546,VALID,0.107441,VALID,16.8972,VALID,251,VALID,0.594141,
2011-01-17, 01:53:05,VALID,916.629,VALID,0,VALID,95.2622,VALID,0,VALID,16.8569,VALID,251,VALID,0.583203,
2011-01-17, 01:54:05,VALID,916.625,VALID,0,VALID,95.3918,VALID,0,VALID,16.8972,VALID,251,VALID,0.600391,
2011-01-17, 01:55:05,VALID,916.592,VALID,0,VALID,95.2393,VALID,0,VALID,16.8972,VALID,251,VALID,0.384375,
2011-01-17, 01:56:05,VALID,916.578,VALID,0,VALID,95.2927,VALID,0,VALID,16.9167,VALID,251,VALID,0.627734,
2011-01-17, 01:57:05,VALID,916.565,VALID,0,VALID,95.1783,VALID,0,VALID,16.9362,VALID,251,VALID,0.673047,
2011-01-17, 01:58:05,VALID,916.535,VALID,0,VALID,94.9268,VALID,0,VALID,16.9556,VALID,251,VALID,0.823047,
2011-01-17, 01:59:05,VALID,916.564,VALID,0,VALID,94.6447,VALID,0,VALID,16.9167,VALID,251,VALID,0.605469,
2011-01-17, 02:00:05,VALID,916.536,VALID,0,VALID,94.2254,VALID,0,VALID,16.8972,VALID,251,VALID,0.635547,
2011-01-17, 02:01:05,VALID,916.525,VALID,0,VALID,94.4236,VALID,0,VALID,16.9167,VALID,251,VALID,0.751953,
2011-01-17, 02:02:05,VALID,916.517,VALID,0,VALID,94.7286,VALID,0,VALID,16.9362,VALID,251,VALID,0.967578,
2011-01-17, 02:03:05,VALID,916.549,VALID,0,VALID,94.8277,VALID,0,VALID,16.9556,VALID,251,VALID,0.653906,
2011-01-17, 02:04:05,VALID,916.54,VALID,0,VALID,94.8429,VALID,0,VALID,16.9556,VALID,251,VALID,0.703125,
2011-01-17, 02:05:05,VALID,916.542,VALID,0,VALID,94.8658,VALID,0.107441,VALID,16.9738,VALID,251,VALID,0.604297,
2011-01-17, 02:06:05,VALID,916.527,VALID,0,VALID,94.8048,VALID,0,VALID,16.9946,VALID,251,VALID,0.816406,
2011-01-17, 02:07:05,VALID,916.521,VALID,0,VALID,94.8658,VALID,0,VALID,17.0336,VALID,251,VALID,0.810938,
2011-01-17, 02:08:05,VALID,916.497,VALID,0,VALID,94.7057,VALID,0,VALID,17.0531,VALID,251,VALID,0.561719,
2011-01-17, 02:09:05,VALID,916.518,VALID,0,VALID,94.3703,VALID,0,VALID,17.0531,VALID,251,VALID,0.495703,
2011-01-17, 02:10:05,VALID,916.507,VALID,0,VALID,94.0272,VALID,0.107441,VALID,17.0726,VALID,251,VALID,0.709375,
2011-01-17, 02:11:05,VALID,916.482,VALID,0,VALID,93.8976,VALID,0,VALID,17.0726,VALID,251,VALID,0.7875,
2011-01-17, 02:12:05,VALID,916.467,VALID,0,VALID,93.9738,VALID,0,VALID,17.1115,VALID,251,VALID,0.678516,
2011-01-17, 02:13:05,VALID,916.472,VALID,0,VALID,93.6994,VALID,0,VALID,17.131,VALID,251,VALID,0.467187,
2011-01-17, 02:14:05,VALID,916.446,VALID,0,VALID,93.3564,VALID,0,VALID,17.1297,VALID,251,VALID,0.542578,
2011-01-17, 02:15:05,VALID,916.447,VALID,0,VALID,93.0819,VALID,0,VALID,17.131,VALID,251,VALID,0.677344,
2011-01-17, 02:16:05,VALID,916.412,VALID,0,VALID,93.1048,VALID,0,VALID,17.1895,VALID,251,VALID,0.548047,
2011-01-17, 02:17:05,VALID,916.417,VALID,0,VALID,92.8837,VALID,0,VALID,17.209,VALID,251,VALID,0.531641,
2011-01-17, 02:18:05,VALID,916.387,VALID,0,VALID,92.7846,VALID,0,VALID,17.1895,VALID,251,VALID,0.761719,
2011-01-17, 02:19:05,VALID,916.368,VALID,0,VALID,92.9142,VALID,0,VALID,17.209,VALID,251,VALID,0.835938,
2011-01-17, 02:20:05,VALID,916.385,VALID,0,VALID,92.9066,VALID,0,VALID,17.2285,VALID,251,VALID,0.926172,
2011-01-17, 02:21:05,VALID,916.419,VALID,0,VALID,92.8837,VALID,0,VALID,17.2077,VALID,251,VALID,0.893359,
2011-01-17, 02:22:05,VALID,916.369,VALID,0,VALID,92.7693,VALID,0,VALID,17.2271,VALID,251,VALID,1.02344,
2011-01-17, 02:23:05,VALID,916.403,VALID,0,VALID,92.5102,VALID,0,VALID,17.209,VALID,251,VALID,0.773828,
2011-01-17, 02:24:05,VALID,916.414,VALID,0,VALID,92.655,VALID,0,VALID,17.17,VALID,251,VALID,0.926953,
2011-01-17, 02:25:05,VALID,916.427,VALID,0,VALID,92.7617,VALID,0,VALID,17.1505,VALID,251,VALID,1.00742,
2011-01-17, 02:26:05,VALID,916.433,VALID,0,VALID,92.6702,VALID,0,VALID,17.131,VALID,251,VALID,0.978906,
2011-01-17, 02:27:05,VALID,916.445,VALID,0,VALID,92.5483,VALID,0,VALID,17.1115,VALID,251,VALID,0.849219,
2011-01-17, 02:28:05,VALID,916.462,VALID,0,VALID,92.4949,VALID,0,VALID,17.092,VALID,251,VALID,1.07695,
2011-01-17, 02:29:05,VALID,916.417,VALID,0,VALID,92.3501,VALID,0,VALID,17.092,VALID,250,VALID,1.02148,
2011-01-17, 02:30:05,VALID,916.417,VALID,0,VALID,92.2052,VALID,0.107441,VALID,17.1115,VALID,250,VALID,0.86875,
2011-01-17, 02:31:05,VALID,916.386,VALID,0,VALID,92.2281,VALID,0,VALID,17.092,VALID,250,VALID,0.754687,
2011-01-17, 02:32:05,VALID,916.395,VALID,0,VALID,92.4415,VALID,0,VALID,17.0726,VALID,250,VALID,0.937109,
2011-01-17, 02:33:05,VALID,916.38,VALID,0,VALID,92.5254,VALID,0,VALID,17.0531,VALID,250,VALID,1.01719,
2011-01-17, 02:34:05,VALID,916.33,VALID,0,VALID,92.4644,VALID,0,VALID,17.0726,VALID,250,VALID,0.991406,
2011-01-17, 02:35:05,VALID,916.341,VALID,0,VALID,92.3043,VALID,0,VALID,17.0726,VALID,250,VALID,0.874219,
2011-01-17, 02:36:05,VALID,916.315,VALID,0,VALID,92.1366,VALID,0,VALID,17.0726,VALID,250,VALID,1.1375,
2011-01-17, 02:37:05,VALID,916.331,VALID,0,VALID,91.885,VALID,0,VALID,17.0726,VALID,250,VALID,1.12109,
2011-01-17, 02:38:05,VALID,916.293,VALID,0,VALID,91.7326,VALID,0,VALID,17.0726,VALID,250,VALID,1.04336,
2011-01-17, 02:39:05,VALID,916.268,VALID,0,VALID,91.4734,VALID,0,VALID,17.092,VALID,250,VALID,1.05977,
2011-01-17, 02:40:05,VALID,916.237,VALID,0,VALID,91.2142,VALID,0,VALID,17.092,VALID,250,VALID,1.25312,
2011-01-17, 02:41:05,VALID,916.249,VALID,0,VALID,90.9931,VALID,0,VALID,17.1115,VALID,250,VALID,1.02031,
2011-01-17, 02:42:05,VALID,916.241,VALID,0,VALID,90.8101,VALID,0,VALID,17.0907,VALID,249,VALID,1.325,
2011-01-17, 02:43:05,VALID,916.231,VALID,0,VALID,90.6805,VALID,0,VALID,17.131,VALID,249,VALID,0.893359,
2011-01-17, 02:44:05,VALID,916.235,VALID,0,VALID,90.711,VALID,0.107441,VALID,17.131,VALID,249,VALID,0.805859,
2011-01-17, 02:45:05,VALID,916.207,VALID,0,VALID,90.5509,VALID,0,VALID,17.131,VALID,249,VALID,1.02734,
2011-01-17, 02:46:05,VALID,916.202,VALID,0,VALID,90.4366,VALID,0,VALID,17.1102,VALID,249,VALID,0.761719,
2011-01-17, 02:47:05,VALID,916.177,VALID,0,VALID,90.3222,VALID,0,VALID,17.1102,VALID,249,VALID,0.628516,
2011-01-17, 02:48:05,VALID,916.176,VALID,0,VALID,90.3527,VALID,0,VALID,17.1115,VALID,249,VALID,0.994531,
2011-01-17, 02:49:05,VALID,916.166,VALID,0,VALID,90.3604,VALID,0,VALID,17.1115,VALID,249,VALID,0.828906,
2011-01-17, 02:50:05,VALID,916.18,VALID,0,VALID,90.5204,VALID,0,VALID,17.1115,VALID,249,VALID,0.665625,
2011-01-17, 02:51:05,VALID,916.173,VALID,0,VALID,90.6119,VALID,0,VALID,17.1115,VALID,249,VALID,0.733203,
2011-01-17, 02:52:05,VALID,916.159,VALID,0,VALID,90.7796,VALID,0,VALID,17.1115,VALID,249,VALID,0.853516,
2011-01-17, 02:53:05,VALID,916.168,VALID,0,VALID,90.8711,VALID,0,VALID,17.092,VALID,249,VALID,1.05117,
2011-01-17, 02:54:05,VALID,916.138,VALID,0,VALID,91.0388,VALID,0,VALID,17.1115,VALID,249,VALID,1.29805,
2011-01-17, 02:55:05,VALID,916.135,VALID,0,VALID,90.8635,VALID,0,VALID,17.131,VALID,248,VALID,1.07266,
2011-01-17, 02:56:05,VALID,916.076,VALID,0,VALID,90.7491,VALID,0,VALID,17.131,VALID,248,VALID,0.709766,
2011-01-17, 02:57:05,VALID,916.101,VALID,0,VALID,90.6348,VALID,0,VALID,17.1505,VALID,248,VALID,0.744531,
2011-01-17, 02:58:05,VALID,916.073,VALID,0,VALID,90.6043,VALID,0,VALID,17.1895,VALID,248,VALID,0.977734,
2011-01-17, 02:59:05,VALID,916.058,VALID,0,VALID,90.6195,VALID,0.107441,VALID,17.1895,VALID,248,VALID,0.863281,
2011-01-17, 03:00:05,VALID,916.087,VALID,0,VALID,90.6805,VALID,0,VALID,17.17,VALID,248,VALID,0.683203,
2011-01-17, 03:01:05,VALID,916.109,VALID,0,VALID,90.8559,VALID,0,VALID,17.131,VALID,248,VALID,0.571094,
2011-01-17, 03:02:05,VALID,916.09,VALID,0,VALID,91.077,VALID,0,VALID,17.1128,VALID,248,VALID,0.546094,
2011-01-17, 03:03:05,VALID,916.104,VALID,0,VALID,91.3666,VALID,0,VALID,17.0739,VALID,248,VALID,0.539063,
2011-01-17, 03:04:05,VALID,916.103,VALID,0,VALID,91.7402,VALID,0,VALID,17.0544,VALID,248,VALID,0.854297,
2011-01-17, 03:05:05,VALID,916.104,VALID,0,VALID,92.1442,VALID,0,VALID,17.0349,VALID,248,VALID,0.964453,
2011-01-17, 03:06:05,VALID,916.108,VALID,0,VALID,92.0451,VALID,0,VALID,16.9946,VALID,248,VALID,0.862891,
2011-01-17, 03:07:05,VALID,916.117,VALID,0,VALID,92.1823,VALID,0,VALID,16.9764,VALID,248,VALID,0.805078,
2011-01-17, 03:08:05,VALID,916.119,VALID,0,VALID,92.4415,VALID,0,VALID,16.8972,VALID,248,VALID,0.660156,
2011-01-17, 03:09:05,VALID,916.107,VALID,0,VALID,92.6093,VALID,0,VALID,16.8777,VALID,248,VALID,0.569922,
2011-01-17, 03:10:05,VALID,916.123,VALID,0,VALID,93.0362,VALID,0,VALID,16.879,VALID,248,VALID,1.01133,
2011-01-17, 03:11:05,VALID,916.158,VALID,0,VALID,93.1658,VALID,0,VALID,16.9179,VALID,248,VALID,1.04648,
2011-01-17, 03:12:05,VALID,916.149,VALID,0,VALID,93.1886,VALID,0,VALID,16.9167,VALID,248,VALID,0.990234,
2011-01-17, 03:13:05,VALID,916.159,VALID,0,VALID,93.0362,VALID,0,VALID,16.9167,VALID,248,VALID,0.960938,
2011-01-17, 03:14:05,VALID,916.207,VALID,0,VALID,92.8913,VALID,0,VALID,16.9179,VALID,226,VALID,0.790234,
2011-01-17, 03:15:05,VALID,916.219,VALID,0,VALID,92.8303,VALID,0,VALID,16.8985,VALID,202,VALID,0.981641,
2011-01-17, 03:16:05,VALID,916.227,VALID,0,VALID,92.9676,VALID,0,VALID,16.8764,VALID,202,VALID,0.969922,
2011-01-17, 03:17:05,VALID,916.225,VALID,0,VALID,93.0895,VALID,0,VALID,16.8582,VALID,202,VALID,0.896484,
2011-01-17, 03:18:05,VALID,916.22,VALID,0,VALID,93.2191,VALID,0,VALID,16.8374,VALID,201,VALID,0.671875,
2011-01-17, 03:19:05,VALID,916.225,VALID,0,VALID,93.3868,VALID,0,VALID,16.8582,VALID,201,VALID,1.00977,
2011-01-17, 03:20:05,VALID,916.241,VALID,0,VALID,93.5546,VALID,0,VALID,16.8387,VALID,201,VALID,0.960156,
2011-01-17, 03:21:05,VALID,916.242,VALID,0,VALID,93.5851,VALID,0,VALID,16.8387,VALID,201,VALID,0.773438,
2011-01-17, 03:22:05,VALID,916.235,VALID,0,VALID,93.5698,VALID,0,VALID,16.8387,VALID,201,VALID,0.782812,
2011-01-17, 03:23:05,VALID,916.246,VALID,0,VALID,93.6232,VALID,0,VALID,16.8192,VALID,201,VALID,0.860156,
2011-01-17, 03:24:05,VALID,916.239,VALID,0,VALID,93.6155,VALID,0,VALID,16.7998,VALID,201,VALID,1.04688,
2011-01-17, 03:25:05,VALID,916.264,VALID,0,VALID,93.768,VALID,0,VALID,16.8192,VALID,201,VALID,1.21055,
2011-01-17, 03:26:05,VALID,916.256,VALID,0,VALID,93.8138,VALID,0,VALID,16.8582,VALID,201,VALID,1.02148,
2011-01-17, 03:27:05,VALID,916.252,VALID,0,VALID,93.6232,VALID,0,VALID,16.8972,VALID,160,VALID,1.57734,
2011-01-17, 03:28:05,VALID,916.251,VALID,0,VALID,93.0667,VALID,0,VALID,16.9362,VALID,157,VALID,1.26172,
2011-01-17, 03:29:05,VALID,916.242,VALID,0,VALID,92.5559,VALID,0,VALID,16.9556,VALID,157,VALID,1.06211,
2011-01-17, 03:30:05,VALID,916.226,VALID,0,VALID,92.0985,VALID,0,VALID,16.9751,VALID,157,VALID,1.10117,
2011-01-17, 03:31:05,VALID,916.239,VALID,0,VALID,91.6106,VALID,0,VALID,17.0141,VALID,156,VALID,1.15977,
2011-01-17, 03:32:05,VALID,916.249,VALID,0,VALID,91.1151,VALID,0,VALID,17.0531,VALID,145,VALID,1.23477,
2011-01-17, 03:33:05,VALID,916.225,VALID,0,VALID,90.6882,VALID,0,VALID,17.131,VALID,145,VALID,1.06406,
2011-01-17, 03:34:05,VALID,916.23,VALID,0,VALID,90.368,VALID,0,VALID,17.1895,VALID,145,VALID,1.15273,
2011-01-17, 03:35:05,VALID,916.218,VALID,0,VALID,89.8725,VALID,0,VALID,17.209,VALID,145,VALID,1.13242,
2011-01-17, 03:36:05,VALID,916.186,VALID,0,VALID,89.3159,VALID,0,VALID,17.2674,VALID,145,VALID,1.28633,
2011-01-17, 03:37:05,VALID,916.17,VALID,0,VALID,88.5993,VALID,0,VALID,17.3454,VALID,145,VALID,1.2832,
2011-01-17, 03:38:05,VALID,916.159,VALID,0,VALID,88.3325,VALID,0,VALID,17.3649,VALID,145,VALID,1.2543,
2011-01-17, 03:39:05,VALID,916.157,VALID,0,VALID,88.5917,VALID,0,VALID,17.3844,VALID,145,VALID,0.969141,
2011-01-17, 03:40:05,VALID,916.157,VALID,0,VALID,89.0186,VALID,0,VALID,17.3649,VALID,145,VALID,0.6625,
2011-01-17, 03:41:05,VALID,916.135,VALID,0,VALID,88.7289,VALID,0,VALID,17.2856,VALID,145,VALID,0.955078,
2011-01-17, 03:42:05,VALID,916.118,VALID,0,VALID,88.4011,VALID,0.107441,VALID,17.3467,VALID,145,VALID,1.03008,
2011-01-17, 03:43:05,VALID,916.151,VALID,0,VALID,88.6298,VALID,0,VALID,17.3259,VALID,145,VALID,0.663281,
2011-01-17, 03:44:05,VALID,916.136,VALID,0,VALID,88.668,VALID,0,VALID,17.3064,VALID,145,VALID,0.916797,